Flag for Austria Weather past 2 weeks in Ansfelden, Upper Austria, Austria

Now
89 °F

Scattered clouds.


Feels Like: 86 °F
Forecast: 62 / 91 °F
Wind: 3 mph from Northwest

Location: Linz / Hoersching-Flughafen

Current Time: Aug 28, 2015 at 5:25:31 PM

Latest Report: Aug 28, 2015 at 5:00 PM


Visibility: 28 mi

Pressure: 30.02 "Hg

Humidity: 31%

Dew point: 54 °F

Location of AnsfeldenLocation

Historic Weather in Ansfelden — Graph

°F

Ansfelden temperature yesterday

Maximum temperature yesterday: 89 °F (at 5:00 PM)
Minimum temperature yesterday: 53 °F (at 7:00 AM)
Average temperature yesterday: 73 °F

Past Weeks' High & Low Weather Summary

 TemperatureHumidityPressure
High95 °F (Aug 13, 4:00 PM)96% (Aug 21, 12:00 AM)30.27 "Hg (Aug 21, 12:00 AM)
Low46 °F (Aug 26, 6:00 AM)17% (Aug 26, 4:00 PM)29.62 "Hg (Aug 14, 7:00 PM)
Average68 °F65%29.96 "Hg
* Reported Aug 13 4:00 PM — Aug 28 4:00 PM, Ansfelden, Weather by CustomWeather, © 2015

Note: Actual official high and low records may vary slightly from our data, if they occured in-between our weather recording intervals... More about our weather records

Advertising

Ansfelden weather history for previous 24 hours

 ConditionsComfort  
Time TempWeatherWind HumidityBarometerVisibility
4:00 PM
Fri, Aug 28
89 °FScattered clouds.5 mph30%30.02 "Hg22 mi
3:00 PM90 °FScattered clouds.6 mph28%30.02 "Hg25 mi
2:00 PM87 °FScattered clouds.3 mph33%30.04 "Hg19 mi
1:00 PM85 °FPartly sunny.5 mph35%30.05 "Hg18 mi
12:00 PM83 °FScattered clouds.5 mph41%30.05 "Hg22 mi
11:00 AM79 °FScattered clouds.5 mph47%30.05 "Hg17 mi
10:00 AM72 °FScattered clouds.N/A63%30.06 "Hg17 mi
9:00 AMN/APassing clouds.9 mphN/AN/A16 mi
8:00 AM62 °FScattered clouds.N/A81%30.04 "Hg25 mi
7:00 AM58 °FScattered clouds.N/A88%30.01 "Hg15 mi
5:00 AM58 °FPassing clouds.N/A86%29.98 "Hg17 mi
4:00 AM60 °FPassing clouds.N/A83%29.96 "Hg16 mi
3:00 AM60 °FCool.N/A84%29.94 "Hg22 mi
2:00 AM63 °FMild.N/A77%29.93 "Hg25 mi
1:00 AMN/APassing clouds.14 mphN/AN/A2 mi
10:00 PM
Thu, Aug 27
75 °FPassing clouds.N/A53%29.89 "Hg28 mi
9:00 PM78 °FPassing clouds.N/A47%29.88 "Hg28 mi
8:00 PM82 °FPassing clouds.3 mph39%29.86 "Hg31 mi
7:00 PM85 °FPartly sunny.6 mph31%29.86 "Hg28 mi
6:00 PM88 °FScattered clouds.6 mph26%29.85 "Hg22 mi
5:00 PM89 °FScattered clouds.5 mph24%29.86 "Hg19 mi
Weather by CustomWeather, © 2015

See weather overviewHow to use our weather pages